Terminal Aerodrome Forecast
Issued by NWS

Home | Current Version | Previous Version | Text Only | Print | Product List | Glossary On
Versions: 1 2 3 4 5 6 7 8 9 10 11 12 13 14 15 16 17 18 19 20 21 22 23 24 25 26 27 28 29 30 31 32 33 34 35 36 37 38 39 40 41 42 43 44 45 46 47 48 49 50
000
FTUS43 KMKX 300227 AAB
TAFUES
TAF AMD
KUES 300227Z 3002/3024 35013G22KT P6SM VCSH OVC035
     FM300500 33012KT P6SM BKN035
     FM300800 33011KT P6SM SCT035
     FM301200 33009KT P6SM SCT250
     FM301700 32005KT P6SM SCT150
     FM302200 26006KT P6SM SCT080=

USA.gov is the U.S. government's official web portal to all federal, state and local government web resources and services.